Waarnemingen

Advertentie
Mijn weer
Fair Isle, Groot Brittannië (3008): temperatuur & dauwpunt: 13.01.2018 23:00:00 - 19.01.2018 23:00:00 (GMT)Fair Isle, Groot Brittannië (3008): temperatuur -20cm & temperatuur -100cm: 13.01.2018 23:00:00 - 19.01.2018 23:00:00 (GMT)Fair Isle, Groot Brittannië (3008): windsnelheid & windstoten: 13.01.2018 23:00:00 - 19.01.2018 23:00:00 (GMT)Fair Isle, Groot Brittannië (3008): windrichting: 13.01.2018 23:00:00 - 19.01.2018 23:00:00 (GMT)Fair Isle, Groot Brittannië (3008): luchtdruk: 13.01.2018 23:00:00 - 19.01.2018 23:00:00 (GMT)Fair Isle, Groot Brittannië (3008): zicht: 13.01.2018 23:00:00 - 19.01.2018 23:00:00 (GMT)Fair Isle, Groot Brittannië (3008): neerslag: 13.01.2018 23:00:00 - 19.01.2018 23:00:00 (GMT)
Datum & Tijd tt [°C] td [°C] tt -20cm [°C] tt -100cm [°C] ff [km/u] ff [kn] fx [km/u] fx [kn] dd ppp [hPa] vv [km] rr [mm]
19.01.2018 23:00:00 - - - - - - - - - - - -
19.01.2018 22:00:00 2,2 -0,4 - - 18 10 - - WZW 993,9 35 0,0
19.01.2018 21:00:00 2,6 0,1 - - 15 8 - - WZW 993,8 29 0,0
19.01.2018 20:00:00 2,1 -0,5 - - 18 10 - - ZW 993,8 45 0,0
19.01.2018 19:00:00 2,4 -1,1 - - 21 11 - - WZW 993,5 40 0,0
19.01.2018 18:00:00 2,5 -0,6 - - 21 11 - - ZW 993,4 45 0,0
19.01.2018 17:00:00 2,8 -0,1 - - 18 10 - - WZW 993,3 45 0,0
19.01.2018 16:00:00 2,4 -0,6 - - 16 9 - - WZW 993,2 30 0,0
19.01.2018 15:00:00 2,7 -0,3 - - 24 13 - - WZW 993,1 29 0,0
19.01.2018 14:00:00 3,2 0,3 - - 18 10 - - WZW 992,8 21 0,0
19.01.2018 13:00:00 2,7 0,5 - - 22 12 - - ZW 993,0 30 0,0
19.01.2018 12:00:00 2,9 0,0 - - 22 12 - - ZW 993,1 21 0,0
19.01.2018 11:00:00 2,7 0,1 - - 21 11 - - ZW 993,4 27 0,0
19.01.2018 10:00:00 2,5 0,3 - - 31 17 - - WZW 993,1 17 0,0
19.01.2018 09:00:00 2,3 -0,3 - - 24 13 - - WZW 992,9 45 0,0
19.01.2018 08:00:00 2,7 -1,8 - - 26 14 - - WZW 992,3 18 -
19.01.2018 07:00:00 2,3 -0,4 - - 34 18 - - WZW 992,2 30 -
19.01.2018 06:00:00 2,8 0,1 - - 31 17 - - WZW - 35 0,0
19.01.2018 05:00:00 2,4 -0,4 - - 22 12 - - WZW - - 0,0
19.01.2018 04:00:00 2,9 -0,5 - - 29 16 - - WZW 992,0 35 0,0
19.01.2018 03:00:00 3,0 0,5 - - 28 15 - - WZW 992,3 35 0,0
19.01.2018 02:00:00 2,2 0,7 - - 15 8 50 27 ZW 992,6 29 0,8
19.01.2018 01:00:00 3,1 1,0 - - 18 10 - - WNW 992,5 24 0,0
19.01.2018 00:00:00 3,1 -0,5 - - 29 16 - - WZW 992,1 40 0,0
18.01.2018 23:00:00 2,5 -0,3 - - 22 12 61 33 W 992,1 35 0,4
18.01.2018 22:00:00 2,7 1,0 - - 21 11 - - WZW 991,9 25 0,2
18.01.2018 21:00:00 1,8 0,8 - - 16 9 - - WZW 992,3 22 0,0
18.01.2018 20:00:00 1,0 -0,2 - - 21 11 - - WZW 992,1 5 1,4
18.01.2018 19:00:00 1,9 -0,4 - - 29 16 46 25 ZW 991,8 22 0,0
18.01.2018 18:00:00 2,3 -0,1 - - 21 11 - - ZW 991,2 30 0,0
18.01.2018 17:00:00 2,4 -1,4 - - 21 11 - - WZW 990,7 30 0,0
18.01.2018 16:00:00 3,4 -0,7 - - 18 10 - - W 990,3 40 0,0
18.01.2018 15:00:00 3,4 0,2 - - 15 8 - - W 990,0 35 0,0
18.01.2018 14:00:00 3,3 0,1 - - 18 10 - - W 989,6 35 0,0
18.01.2018 13:00:00 2,6 -1,3 - - 28 15 - - W 989,5 25 0,0
18.01.2018 12:00:00 3,6 0,3 - - 21 11 - - W 989,1 35 0,0
18.01.2018 11:00:00 3,4 -0,9 - - 21 11 - - W 988,7 23 0,0
18.01.2018 10:00:00 2,6 -0,6 - - 21 11 - - W 988,2 28 0,0
18.01.2018 09:00:00 2,8 0,9 - - 18 10 - - W 987,6 20 0,2
18.01.2018 08:00:00 1,3 0,3 - - 11 6 - - ZW 987,3 20 0,0
18.01.2018 07:00:00 0,9 -0,2 - - 5 3 - - ZW - - 0,4
18.01.2018 06:00:00 2,0 -0,1 - - 11 6 - - NNW 986,4 20 0,0
18.01.2018 05:00:00 2,7 0,2 - - 18 10 - - WNW - - 0,0
18.01.2018 04:00:00 3,5 0,3 - - 24 13 - - WZW 986,0 26 0,0
18.01.2018 03:00:00 3,3 -2,6 - - 9 5 - - ZZW 986,1 40 0,0
18.01.2018 02:00:00 3,2 -0,9 - - 16 9 - - WZW 986,0 18 0,0
18.01.2018 01:00:00 3,5 -1,7 - - 11 6 - - W 986,2 22 0,0
18.01.2018 00:00:00 3,6 -0,7 - - 11 6 - - W 986,3 16 0,0
17.01.2018 23:00:00 2,1 -1,3 - - 2 1 - - WZW 986,9 11 0,0
17.01.2018 22:00:00 3,6 -0,1 - - 13 7 - - W 987,0 25 0,0
17.01.2018 21:00:00 3,3 -0,2 - - 13 7 - - WNW 987,0 11 0,0
17.01.2018 20:00:00 2,8 0,4 - - 13 7 - - NW 987,3 11 0,0
17.01.2018 19:00:00 3,2 0,8 - - 21 11 - - W 987,2 10 0,0
17.01.2018 18:00:00 3,6 -0,1 - - 24 13 52 28 WNW 986,6 20 0,2
17.01.2018 17:00:00 2,6 0,3 - - 35 19 48 26 WNW 986,3 11 0,6
17.01.2018 16:00:00 3,8 0,2 - - 34 18 52 28 WNW 986,0 13 0,0
17.01.2018 15:00:00 3,6 1,0 - - 24 13 - - W 984,9 30 0,4
17.01.2018 14:00:00 2,4 1,5 - - 24 13 - - W 984,5 8 0,2
17.01.2018 13:00:00 2,7 1,5 - - 18 10 - - W 984,1 25 0,0
17.01.2018 12:00:00 1,9 0,4 - - 22 12 46 25 NW 983,4 12 0,0
17.01.2018 11:00:00 3,4 0,9 - - 34 18 61 33 WNW 982,6 17 0,2
17.01.2018 10:00:00 3,0 1,0 - - 34 18 55 30 WNW 981,8 11 0,8
17.01.2018 09:00:00 2,9 1,0 - - 22 12 54 29 W 981,3 4,0 0,2
17.01.2018 08:00:00 2,3 1,4 - - 37 20 61 33 W 980,5 12 0,0
17.01.2018 07:00:00 2,0 1,1 - - 22 12 - - ZW 979,7 11 0,0
17.01.2018 06:00:00 1,3 0,8 - - 28 15 48 26 ZW 979,3 22 0,6
17.01.2018 05:00:00 0,7 0,1 - - 28 15 50 27 WNW 978,5 4,7 0,0
17.01.2018 04:00:00 2,5 -0,5 - - 37 20 54 29 WZW 977,4 20 0,0
17.01.2018 03:00:00 2,2 -1,3 - - 28 15 54 29 WZW 977,1 14 0,0
17.01.2018 02:00:00 1,5 0,2 - - 22 12 54 29 W 976,7 23 0,0
17.01.2018 01:00:00 2,1 -0,8 - - 39 21 63 34 ZW 976,1 24 0,0
17.01.2018 00:00:00 2,3 -1,6 - - 46 25 59 32 WZW 975,2 20 0,0
16.01.2018 23:00:00 2,1 -2,4 - - 42 23 57 31 ZW 974,5 12 0,0
16.01.2018 22:00:00 2,3 -0,4 - - 39 21 59 32 ZW 974,1 21 0,4
16.01.2018 21:00:00 2,0 -1,2 - - 35 19 55 30 ZW 973,4 10 0,2
16.01.2018 20:00:00 1,0 -1,1 - - 16 9 63 34 WZW 973,1 6 0,0
16.01.2018 19:00:00 0,4 -1,1 - - 35 19 72 39 ZZW 972,9 4,6 0,4
16.01.2018 18:00:00 1,1 -0,6 - - 42 23 70 38 ZW 971,7 15 0,4
16.01.2018 17:00:00 0,5 0,0 - - 21 11 81 44 W 971,8 14 0,2
16.01.2018 16:00:00 2,3 0,0 - - 42 23 59 32 ZW 971,1 11 1,4
16.01.2018 15:00:00 1,5 0,6 - - 35 19 50 27 ZW 971,2 20 0,2
16.01.2018 14:00:00 0,5 -0,3 - - 28 15 50 27 WZW 971,6 12 0,0
16.01.2018 13:00:00 0,4 -2,1 - - 42 23 70 38 WZW 971,8 0,2 0,2
16.01.2018 12:00:00 2,4 -2,3 - - 50 27 68 37 ZW 971,2 17 0,0
16.01.2018 11:00:00 2,7 -2,1 - - 39 21 55 30 ZW 971,4 12 0,0
16.01.2018 10:00:00 1,7 -1,2 - - 41 22 74 40 ZW 971,6 9 0,0
16.01.2018 09:00:00 2,9 -2,2 5,5 6,0 44 24 72 39 WZW 971,3 12 2,0
16.01.2018 08:00:00 2,9 1,5 - - 28 15 65 35 ZW 971,2 11 0,0
16.01.2018 07:00:00 0,7 -0,7 - - 26 14 70 38 WNW 971,4 4,3 0,0
16.01.2018 06:00:00 2,5 0,9 - - 42 23 63 34 WZW 971,4 14 0,0
16.01.2018 05:00:00 2,3 2,3 - - 44 24 61 33 ZW 971,5 11 0,0
16.01.2018 04:00:00 2,6 2,6 - - 48 26 63 34 ZW 971,7 12 0,0
16.01.2018 03:00:00 2,7 2,7 - - 35 19 48 26 ZW 972,3 13 0,0
16.01.2018 02:00:00 1,7 1,7 - - 37 20 65 35 ZW 972,7 15 0,4
16.01.2018 01:00:00 1,9 1,9 - - 29 16 54 29 WZW 972,9 9 1,4
16.01.2018 00:00:00 2,6 2,6 - - 39 21 61 33 WZW 973,2 7 0,0
15.01.2018 23:00:00 2,6 2,6 - - 44 24 65 35 ZW 973,2 20 0,0
15.01.2018 22:00:00 3,2 2,7 - - 44 24 63 34 ZW 973,3 12 0,0
15.01.2018 21:00:00 3,2 1,7 - - 44 24 61 33 ZW 973,6 16 0,0
15.01.2018 20:00:00 2,9 2,8 - - 21 11 57 31 WZW 973,9 7 0,0
15.01.2018 19:00:00 3,2 0,2 - - 31 17 55 30 ZW 974,2 9 0,0
15.01.2018 18:00:00 3,4 0,1 - - 42 23 63 34 ZW 975,1 11 0,0
15.01.2018 17:00:00 3,7 1,3 - - 37 20 61 33 ZW 975,6 12 0,4
15.01.2018 16:00:00 3,8 0,6 - - 37 20 63 34 ZW 976,3 12 0,2
15.01.2018 15:00:00 4,0 0,2 - - 42 23 55 30 ZW 977,1 13 0,0
15.01.2018 14:00:00 2,8 -1,7 - - 26 14 55 30 ZW 978,4 8 0,6
15.01.2018 13:00:00 4,5 -0,6 - - 41 22 52 28 ZW 978,5 17 0,2
15.01.2018 12:00:00 5,2 -0,6 - - 39 21 54 29 ZW 979,2 14 0,0
15.01.2018 11:00:00 5,4 -0,5 - - 37 20 52 28 ZW 979,9 19 0,0
15.01.2018 10:00:00 4,9 -0,5 - - 35 19 54 29 WZW 980,7 17 0,0
15.01.2018 09:00:00 5,3 1,4 5,7 6,0 31 17 50 27 ZW 981,7 11 0,0
15.01.2018 08:00:00 5,1 4,6 - - 35 19 61 33 ZW 982,0 12 0,2
15.01.2018 07:00:00 5,4 3,2 - - 44 24 57 31 ZW 981,8 16 0,0
15.01.2018 06:00:00 5,9 3,9 - - 29 16 50 27 ZW 981,9 13 0,0
15.01.2018 05:00:00 5,9 4,1 - - 41 22 55 30 ZW 982,1 16 0,0
15.01.2018 04:00:00 6,4 4,4 - - 42 23 61 33 ZW 982,3 10 0,0
15.01.2018 03:00:00 7,0 - - - 46 25 68 37 ZZW 982,6 10 0,0
15.01.2018 02:00:00 6,9 6,9 - - 55 30 81 44 ZZW 983,1 6 0,0
15.01.2018 01:00:00 6,6 5,4 - - 61 33 96 52 Z 983,7 8 0,0
15.01.2018 00:00:00 6,4 5,8 - - 68 37 107 58 Z 984,4 7 0,0
14.01.2018 23:00:00 6,4 6,4 - - 76 41 102 55 Z 985,6 7 0,2
14.01.2018 22:00:00 5,4 5,1 - - 76 41 113 61 Z 986,8 5 0,6
14.01.2018 21:00:00 5,4 5,4 - - 80 43 109 59 Z 988,0 4,0 0,6
14.01.2018 20:00:00 5,6 5,6 - - 81 44 113 61 Z 989,8 4,5 0,6
14.01.2018 19:00:00 5,2 5,2 - - 81 44 119 64 Z 991,1 3,5 2,2
14.01.2018 18:00:00 4,8 4,3 - - 80 43 119 64 Z 993,1 2,5 3,4
14.01.2018 17:00:00 5,4 4,7 - - 80 43 106 57 Z 994,9 3,8 2,4
14.01.2018 16:00:00 6,4 4,1 - - 70 38 104 56 Z 997,4 6 0,0
14.01.2018 15:00:00 6,2 3,7 - - 67 36 102 55 Z 999,2 8 0,0
14.01.2018 14:00:00 6,4 4,0 - - 74 40 102 55 Z 1000,9 7 0,0
14.01.2018 13:00:00 6,3 4,1 - - 70 38 100 54 Z 1002,2 8 0,0
14.01.2018 12:00:00 6,5 4,5 - - 70 38 100 54 Z 1003,8 7 0,0
14.01.2018 11:00:00 6,4 4,5 - - 74 40 106 57 Z 1005,4 7 0,0
14.01.2018 10:00:00 6,4 4,5 - - 70 38 96 52 Z 1006,7 7 0,0
14.01.2018 09:00:00 6,5 4,7 5,7 5,9 65 35 93 50 Z 1007,8 7 0,0
14.01.2018 08:00:00 6,4 4,4 - - 65 35 89 48 Z 1008,2 8 0,0
14.01.2018 07:00:00 6,5 4,6 - - 59 32 81 44 Z 1009,4 8 0,0
14.01.2018 06:00:00 6,6 4,5 - - 61 33 80 43 Z 1010,1 8 0,0
14.01.2018 05:00:00 6,6 4,6 - - 55 30 83 45 Z 1010,9 7 0,0
14.01.2018 04:00:00 6,3 4,6 - - 61 33 85 46 Z 1010,9 7 0,0
14.01.2018 03:00:00 6,7 4,3 - - 57 31 85 46 Z 1012,1 9 0,0
14.01.2018 02:00:00 6,7 4,1 - - 63 34 87 47 Z 1012,7 9 0,0
14.01.2018 01:00:00 6,7 3,9 - - 59 32 83 45 Z 1013,4 11 0,0
14.01.2018 00:00:00 6,7 3,5 - - 63 34 85 46 Z 1014,0 11 0,0
13.01.2018 23:00:00 6,8 3,9 - - 65 35 87 47 Z 1014,3 10 0,0

tt = temperatuur
td = dauwpunt
tt -20cm = temperatuur -20cm
tt -100cm = temperatuur -100cm
ff = windsnelheid
fx = windstoten
dd = windrichting
ppp = luchtdruk
vv = zicht
rr = neerslag

Weerstations in de omgeving